{"data":{"norad_id":63358,"epoch":"2026-09-19T18:07:29.191872Z","epoch_age_seconds":78896,"freshness":"FRESH","line1":"1 63358U 25061H   26262.75519898  .00002812  00000+0  15441-3 0  9999","line2":"2 63358  97.5731 237.9596 0014842 294.2072  65.7609 15.14881096 81932","mean_motion":15.14881096,"eccentricity":0.0014842,"inclination_deg":97.5731,"raan_deg":237.9596,"arg_perigee_deg":294.2072,"mean_anomaly_deg":65.7609,"bstar":0.00015441,"rev_number":8193,"period_min":95.056965447802,"perigee_km":511.09936289893,"apogee_km":531.5797691375,"semimajor_km":6899.4765660182,"source":"CELESTRAK","updated_at":"2026-09-20T09:00:34.876957Z"}}